TimeEDT,TemperatureF,Dew PointF,Humidity,Sea Level PressureIn,VisibilityMPH,Wind Direction,Wind SpeedMPH,Gust SpeedMPH,PrecipitationIn,Events,Conditions,WindDirDegrees,DateUTC
12:04 AM,42.8,41.0,93,30.21,9.0,Calm,Calm,-,N/A,,Partly Cloudy,0,2013-10-12 04:04:00
12:30 AM,42.8,39.2,87,30.21,2.0,Calm,Calm,-,N/A,,Mostly Cloudy,0,2013-10-12 04:30:00
12:38 AM,41.0,39.2,93,30.21,10.0,Calm,Calm,-,N/A,,Mostly Cloudy,0,2013-10-12 04:38:00
12:54 AM,41.0,39.9,96,30.22,10.0,Calm,Calm,-,N/A,,Overcast,0,2013-10-12 04:54:00
1:14 AM,39.2,39.2,100,30.22,10.0,Calm,Calm,-,N/A,,Partly Cloudy,0,2013-10-12 05:14:00
1:54 AM,41.0,39.0,93,30.23,9.0,Calm,Calm,-,N/A,,Clear,0,2013-10-12 05:54:00
2:54 AM,39.9,39.0,97,30.24,9.0,Calm,Calm,-,N/A,,Clear,0,2013-10-12 06:54:00
3:54 AM,39.0,37.9,96,30.26,9.0,Calm,Calm,-,N/A,,Clear,0,2013-10-12 07:54:00
4:54 AM,39.0,37.9,96,30.29,9.0,Calm,Calm,-,N/A,,Clear,0,2013-10-12 08:54:00
5:54 AM,39.0,37.9,96,30.31,10.0,Calm,Calm,-,N/A,,Scattered Clouds,0,2013-10-12 09:54:00
6:54 AM,39.0,37.9,96,30.33,9.0,Calm,Calm,-,N/A,,Scattered Clouds,0,2013-10-12 10:54:00
7:27 AM,41.0,39.2,93,30.33,10.0,Calm,Calm,-,N/A,,Scattered Clouds,0,2013-10-12 11:27:00
7:38 AM,41.0,39.2,93,30.34,10.0,Calm,Calm,-,N/A,,Mostly Cloudy,0,2013-10-12 11:38:00
7:54 AM,44.1,43.0,96,30.36,10.0,Calm,Calm,-,N/A,,Overcast,0,2013-10-12 11:54:00
8:54 AM,48.0,46.9,96,30.38,10.0,Calm,Calm,-,N/A,,Overcast,0,2013-10-12 12:54:00
9:54 AM,51.1,50.0,96,30.39,10.0,Calm,Calm,-,N/A,,Overcast,0,2013-10-12 13:54:00
10:54 AM,54.0,51.1,90,30.40,10.0,Calm,Calm,-,N/A,,Overcast,0,2013-10-12 14:54:00
11:54 AM,54.0,51.1,90,30.40,3.0,Variable,3.5,-,N/A,,Overcast,0,2013-10-12 15:54:00
12:54 PM,55.0,52.0,89,30.39,5.0,Calm,Calm,-,N/A,,Overcast,0,2013-10-12 16:54:00
1:11 PM,55.4,51.8,88,30.38,4.0,East,4.6,-,N/A,,Overcast,100,2013-10-12 17:11:00
1:54 PM,55.0,52.0,89,30.39,5.0,Calm,Calm,-,N/A,,Overcast,0,2013-10-12 17:54:00
1:56 PM,55.4,51.8,88,30.38,5.0,Calm,Calm,-,N/A,,Overcast,0,2013-10-12 17:56:00
2:09 PM,55.4,51.8,88,30.38,4.0,Calm,Calm,-,0.00,Rain,Light Rain,0,2013-10-12 18:09:00
2:54 PM,55.0,52.0,89,30.39,10.0,Calm,Calm,-,0.00,,Overcast,0,2013-10-12 18:54:00
3:03 PM,55.4,51.8,88,30.38,10.0,Calm,Calm,-,N/A,,Overcast,0,2013-10-12 19:03:00
3:54 PM,55.9,52.0,87,30.38,10.0,Calm,Calm,-,N/A,,Overcast,0,2013-10-12 19:54:00
4:54 PM,55.9,52.0,87,30.39,10.0,Calm,Calm,-,N/A,,Overcast,0,2013-10-12 20:54:00
5:54 PM,54.0,50.0,86,30.40,10.0,ESE,4.6,-,N/A,,Overcast,120,2013-10-12 21:54:00
6:38 PM,53.6,50.0,88,30.39,10.0,Calm,Calm,-,N/A,,Overcast,0,2013-10-12 22:38:00
6:54 PM,53.1,50.0,89,30.40,10.0,SSE,3.5,-,N/A,,Overcast,150,2013-10-12 22:54:00
7:32 PM,51.8,50.0,94,30.40,9.0,Calm,Calm,-,N/A,,Overcast,0,2013-10-12 23:32:00
7:54 PM,52.0,50.0,93,30.42,6.0,Calm,Calm,-,N/A,,Overcast,0,2013-10-12 23:54:00
8:07 PM,51.8,50.0,94,30.41,8.0,SSE,3.5,-,N/A,,Overcast,150,2013-10-13 00:07:00
8:32 PM,51.8,48.2,88,30.41,9.0,South,3.5,-,N/A,,Overcast,170,2013-10-13 00:32:00
8:54 PM,51.1,48.9,92,30.43,10.0,SSE,3.5,-,N/A,,Overcast,150,2013-10-13 00:54:00
9:25 PM,51.8,48.2,88,30.41,10.0,SE,3.5,-,N/A,,Overcast,140,2013-10-13 01:25:00
9:38 PM,51.8,48.2,88,30.41,10.0,Calm,Calm,-,N/A,,Overcast,0,2013-10-13 01:38:00
9:54 PM,51.1,48.9,92,30.43,10.0,Calm,Calm,-,N/A,,Overcast,0,2013-10-13 01:54:00
10:10 PM,51.8,48.2,88,30.42,10.0,Calm,Calm,-,N/A,,Overcast,0,2013-10-13 02:10:00
10:54 PM,51.1,48.9,92,30.43,10.0,Calm,Calm,-,N/A,,Overcast,0,2013-10-13 02:54:00
11:54 PM,51.1,48.0,89,30.43,10.0,Calm,Calm,-,N/A,,Overcast,0,2013-10-13 03:54:00